This is the latest recevied weather packets stored in our database for station/object KF4LQQ-13. If no packets are shown the sender has not sent any weather packets the latest 1 day(s).
| Time | Temp. | Humidity | Pressure | Rain* | Wind** | Luminosity | Snow |
|---|---|---|---|---|---|---|---|
| 1778087255 | 28.89° C | - | 1014.6 hPa | 0 mm | - | - | - |
| 1778086653 | 28.89° C | - | 1014.7 hPa | 0 mm | - | - | - |
| 1778084852 | 28.89° C | - | 1014.8 hPa | 0 mm | - | - | - |
| 1778083050 | 28.89° C | - | 1014.8 hPa | 0 mm | - | - | - |
| 1778081248 | 27.78° C | - | 1014.8 hPa | 0 mm | - | - | - |
| 1778078847 | 26.67° C | - | 1014.5 hPa | 0 mm | - | - | - |
| 1778078247 | 26.11° C | - | 1014.5 hPa | 0 mm | - | - | - |
| 1778076446 | 24.44° C | - | 1014.6 hPa | 0 mm | - | - | - |
| 1778075842 | 24.44° C | - | 1014.6 hPa | 0 mm | - | - | - |
| 1778074041 | 23.89° C | - | 1014.4 hPa | 0 mm | - | - | - |
| 1778073441 | 23.33° C | - | 1014.4 hPa | 0 mm | - | - | - |
| 1778073039 | 23.33° C | - | 1014.4 hPa | 0 mm | - | - | - |
| 1778072240 | 22.78° C | - | 1014.4 hPa | 0 mm | - | - | - |
| 1778071639 | 22.78° C | - | 1014.3 hPa | 0 mm | - | - | - |
| 1778069838 | 22.22° C | - | 1014 hPa | 0 mm | - | - | - |
| 1778068826 | 21.67° C | - | 1013.8 hPa | 0 mm | - | - | - |
| 1778068036 | 21.67° C | - | 1013.8 hPa | 0 mm | - | - | - |
| 1778067435 | 21.67° C | - | 1013.8 hPa | 0 mm | - | - | - |
| 1778066835 | 21.67° C | - | 1013.7 hPa | 0 mm | - | - | - |
| 1778065631 | 21.67° C | - | 1013.4 hPa | 0 mm | - | - | - |
| 1778063829 | 21.67° C | - | 1013 hPa | 0 mm | - | - | - |
| 1778063229 | 21.67° C | - | 1013.1 hPa | 0 mm | - | - | - |
| 1778062027 | 21.67° C | - | 1013 hPa | 0 mm | - | - | - |
| 1778059625 | 22.22° C | - | 1012.9 hPa | 0 mm | - | - | - |
| 1778059025 | 22.22° C | - | 1012.9 hPa | 0 mm | - | - | - |
* Rain since midnight (hover to see other rain measurements)
** Current wind speed in m/s (hover to see current wind gust speed)